Weather in Balashev

Russia / Saratov Oblast     51°33′16″N   43°08′47″E
temp.,
°C
wind,
m/s
gust,
m/s
humid.,
%
clouds,
%
prec.,
mm/h
press.,
hPa
HPBL,
m
16 may, sun
sun1601:00+17ene00806 0.0 101411
04:00+16nne01845 0.0 101511
07:00+17ene238117 0.0 101586
10:00+22sse574980 0.0 1015434
13:00+25s6940100 0.0 1015943
16:00+27s5839100 0.0 10151415
19:00+25se345754 0.0 101488
22:00+19ese335851 0.0 101414
17 may, mon
mon1701:00+18ese4860100 0.0 101495
04:00+17ese476096 0.0 101494
07:00+16se41162100 0.0 1014186
10:00+22se694793 0.0 1015357
13:00+26se71039100 0.0 1014951
16:00+28se61044100 0.0 10131453
19:00+24ese51257100 0.0 1013275
22:00+19ese51557100 0.0 1014254
18 may, tue
tue1801:00+18ese61648100 0.0 1013283
04:00+15se512535 0.0 1012165
07:00+16ese512615 0.0 1012189
10:00+23ese61446100 0.0 1011596
13:00+27se7113938 0.0 1011988
16:00+28se814407 0.0 10101900
19:00+24se4958100 0.0 1009197
22:00+20ssw2261100 0.0 101017
19 may, wed
wed1901:00+17ssw477398 0.0 1011115
04:00+17ene128159 0.0 101114
07:00+18wsw1282100 0.0 101171
10:00+20ssw2370100 0.0 1012334
13:00+19sw4674100 0.0 1013489
16:00+24s345194 0.0 10121507
19:00+21w4668100 0.1 1012189
22:00+17wnw227890 0.3 101224
20 may, thu
thu2001:00+17e338190 0.1 101264
04:00+15s2287100 0.1 101126
07:00+14w4696100 1.9 1012342
10:00+15wnw458297 5.3 1015712
13:00+18w236671 0.1 10161196
16:00+20nnw2255100 0.1 10161415
19:00+20nne236435 0.0 1017216
22:00+16ene3573100 0.0 101776